Find Starlink 6037

NORAD ID: 56461 Int'l Des: 2023-064 Owner: SPXS Country: US Constellation: starlink operational
LEOCIRCULAR

現在のビュー

3D地球を読み込み中...

About Starlink 6037

Starlink 6037 (NORAD 56461) is a starlink constellation satellite (v1.5) launched May 10, 2023 by SPXS of US. It operates in LEO, CIRCULAR orbit with a mass of 305.00 kg.

Starlink 6037について

説明を読み込み中...

次回通過

Passes for default location (London). Set your location on the main map for personalized predictions.

高度履歴

Loading altitude history...

軌道要素

1 56461U 23064P 26170.59000867 -.00000330 00000-0 -19869-4 0 9993
2 56461 69.9992 247.3683 0003529 267.0425 93.0330 14.98332006170514
Epoch: Jun 19, 2026 • Age: 20 hours

現在のステータス

高度 594.3 km
速度 7.56 km/s
衛星直下点 -66.62°S, 120.05°E
打ち上げ日 May 10, 2023
運用期間 3.1 years
タイプ internet

技術仕様

分類 Payload
質量 305.00 kg
乾燥質量 290.00 kg
総質量 305.00 kg
長さ 0.20 m
直径 2.80 m
スパン 9.00 m
形状 Box + pan
製造者 SPXS
バスタイプ Starlink
フェーズステータス In Orbit
所有者/国 SPXS/US

Most Searched